User: anonymous   Login
Location: Newark
(39.4242°N, 80.8531°W)
Time: 04:17:33
(UTC+00:00)
Language:

AO-91 - Orbit

View from above orbital plane
View from above orbital plane
View from above satellite
View from above satellite

Ground track
Ground track

The orbit data is extracted from the following two-line orbital elements,

1 43017U 17073E   20092.73103884  .00000645  00000-0  56201-4 0  9993
2 43017  97.7253   7.9183 0255990 300.5305  57.0864 14.78865658127822
Epoch (UTC): 01 April 2020 17:32:41
Eccentricity: 0.0255990
inclination: 97.7253°
perigee height: 453 km
apogee height: 812 km
right ascension of ascending node: 7.9183°
argument of perigee: 300.5305°
revolutions per day: 14.78865658
mean anomaly at epoch: 57.0864°
orbit number at epoch: 12782

The dashed part of the orbit path shows where the satellite is in the earth's shadow,  

DLR